User: anonymous   Login
Location: Betpouey
(42.8833°N, 0.0333°E)
Time: 17:27:19
(UTC+00:00)
Language:

FENGYUN 1C DEB - Orbit

View from above orbital plane
View from above orbital plane
View from above satellite
View from above satellite

Ground track
Ground track

The orbit data is extracted from the following two-line orbital elements,

1 30279U 99025YQ  21172.60473934  .00000188  00000-0  92569-4 0  9997
2 30279  99.2461  30.8106 0239508  30.3745  29.4685 14.15538547744362
Epoch (UTC): 21 June 2021 14:30:49
Eccentricity: 0.0239508
inclination: 99.2461°
perigee height: 667 km
apogee height: 1013 km
right ascension of ascending node: 30.8106°
argument of perigee: 30.3745°
revolutions per day: 14.15538547
mean anomaly at epoch: 29.4685°
orbit number at epoch: 74436

The dashed part of the orbit path shows where the satellite is in the earth's shadow,  

DLR